{"data":{"norad_id":67001,"intl_designator":"2025-292J","name":"2025-292J","alt_names":[],"object_type":"PAYLOAD","status":"ACTIVE","operator":null,"country":"PRC","launch_date":"2025-12-10","launch_site_code":"JSC","launch_vehicle":null,"mission":null,"orbit_class":"UNKNOWN","rcs_meters":null,"size_class":null,"mass_kg":null,"dimensions":null,"purposes":[],"wikipedia_slug":null,"has_3d_model":false,"image_url":null,"decayed_at":null,"tle_current":{"epoch":"2026-09-20T10:58:53.392224Z","epoch_age_seconds":115923,"freshness":"FRESH","line1":"1 67001U 25292J   26263.45756241  .00002299  00000+0  15628-3 0  9993","line2":"2 67001  97.6272 338.4348 0015710  36.1052 324.1233 15.07260905 42798","mean_motion":15.07260905,"eccentricity":0.001571,"inclination_deg":97.6272,"raan_deg":338.4348,"arg_perigee_deg":36.1052,"mean_anomaly_deg":324.1233,"bstar":0.00015628,"rev_number":4279,"period_min":95.537540662212,"perigee_km":533.69868467801,"apogee_km":555.44984346973,"semimajor_km":6922.7112640739,"source":"CELESTRAK","updated_at":"2026-09-21T09:00:16.367052Z"}}}